Location: Allentsgschwendt
(48.4833°N, 15.3333°E)
Time: 01:17:45
(UTC+00:00)

Daily predictions for brighter satellites

Satellite Brightness Start Highest point End
(mag) Time Altitude Azimuth Time Altitude Azimuth Time Altitude Azimuth
ADEOS II 4.0 00:00:03 10° NE 00:03:55 20° E 00:07:44 10° SE
Cosmos 1461 4.4 00:03:52 10° WNW 00:06:31 22° WSW 00:06:31 22° WSW
NOSS 2-2 (D) 4.4 00:02:09 10° NW 00:07:10 56° SW 00:11:38 22° SSE
Cosmos 1674 Rocket 4.3 00:06:56 31° WSW 00:08:17 39° WNW 00:12:23 10° N
Cosmos 1867 4.1 00:05:01 22° WSW 00:08:27 55° NW 00:13:52 10° NNE
Cosmos 2298 Rocket 4.1 00:07:41 33° SW 00:10:06 71° WNW 00:15:26 10° NNE
Cosmos 1674 4.4 00:10:51 19° W 00:11:52 21° WNW 00:14:47 10° NNW
Cosmos 1238 Rocket 4.4 00:10:40 10° NW 00:12:06 15° WNW 00:12:06 15° WNW
USA 306 2.8 00:11:52 45° SSW 00:12:59 66° SSE 00:17:08 10° ENE
Thor Agena Rocket 3.6 00:07:42 10° NNE 00:13:00 76° ESE 00:15:34 32° S
Cosmos 2084 Rocket 4.2 00:12:47 30° SE 00:13:22 31° ESE 00:16:45 10° ENE
Cosmos 2369 Rocket 4.3 00:09:58 10° NNW 00:14:42 27° NE 00:19:25 10° ESE
ATLAS CENTAUR R/B 4.0 00:13:39 10° W 00:13:59 10° W 00:13:59 10° W
USA 307 2.9 00:15:20 44° SSW 00:16:26 62° SE 00:20:35 10° ENE
SL-16 R/B 3.3 00:16:08 21° SSE 00:19:10 35° ESE 00:24:16 10° NE
ERBS 2.1 00:22:52 59° SE 00:22:53 59° SE 00:25:55 10° ENE
CZ-4 R/B 4.4 00:18:35 10° NNE 00:23:06 48° E 00:25:30 25° SSE
ATLAS 5 CENTAUR R/B 3.3 00:13:30 10° NW 00:23:14 36° WSW 00:24:39 30° SW
Cosmos 1980 3.7 00:20:38 30° SW 00:23:34 78° WNW 00:29:15 10° NNE
Cosmos 1455 Rocket 3.0 00:19:32 10° N 00:24:03 90° S 00:26:09 31° S
CZ-4C R/B 3.7 00:17:41 10° NW 00:24:17 35° WSW 00:27:53 25° SSW
USA 215 4.1 00:18:35 10° ENE 00:24:50 49° NNW 00:31:04 10° W
Cosmos 2333 Rocket 4.0 00:20:21 10° W 00:24:52 24° NW 00:29:26 10° N
COSMOS 2455 4.4 00:21:40 14° SSE 00:25:20 24° ESE 00:30:01 10° NE
Cosmos 332 Rocket 3.7 00:28:23 33° SSW 00:30:32 90° ESE 00:35:23 10° NNE
NOSS 0 Rocket 4.3 00:29:22 23° SW 00:33:18 60° NW 00:39:31 10° NNE
USA 32 4.5 00:35:15 28° SW 00:37:46 50° W 00:42:53 10° N
Meteor 1-24 Rocket 3.8 00:34:53 24° S 00:38:21 70° E 00:43:47 10° NNE
Meteor 2-10 Rocket 3.9 00:32:52 10° NNW 00:38:25 55° W 00:41:17 27° SSW
Cosmos 1975 Rocket 3.1 00:39:39 32° SSW 00:41:39 72° WNW 00:46:07 10° N
UNK 4.0 00:40:50 15° SSE 00:44:36 70° ENE 00:49:13 10° N
USA 308 2.8 00:44:46 27° WSW 00:47:02 88° NNW 00:51:14 10° ENE
MOS 1 Rocket 3.5 00:44:05 14° SSE 00:47:41 62° ENE 00:51:58 10° N
Cosmos 2219 Rocket 4.1 00:44:02 10° W 00:48:14 21° NW 00:52:28 10° N
Cosmos 1025 Rocket 3.0 00:47:03 30° SSW 00:49:07 74° W 00:53:26 10° N
YAOGAN 11 4.3 00:46:10 15° SSE 00:49:50 73° ENE 00:54:21 10° N
Cosmos 1455 2.4 00:46:28 10° N 00:50:10 66° E 00:52:37 20° SSE
Cosmos 1269 Rocket 4.0 00:45:55 10° NNW 00:51:10 67° WSW 00:55:07 18° S
Cosmos 1271 Rocket 3.9 00:49:58 10° N 00:53:35 40° ENE 00:57:14 10° SE
GP-B 4.1 00:52:12 10° NNW 00:56:12 33° W 00:58:07 23° SW
CZ-2D R/B 2.1 00:53:32 10° NNE 00:58:57 85° WNW 01:02:28 22° SSW
Meteor 2-5 Rocket 3.8 00:55:38 23° SSW 00:59:18 73° WNW 01:04:59 10° N
Cosmos 1300 4.3 00:58:01 10° NW 01:00:44 19° W 01:01:27 18° WSW
Lacrosse 5 2.1 00:58:31 25° SSW 01:01:25 60° SE 01:06:26 10° ENE
Cosmos 2154 Rocket 4.2 00:57:54 10° N 01:04:17 77° E 01:10:35 10° SSE
Cosmos 1544 Rocket 3.7 01:06:00 10° NNW 01:10:22 58° W 01:13:10 21° SSW
USA 305 3.2 01:07:08 15° WSW 01:10:34 62° NNW 01:14:42 10° ENE
BREEZE-M DEB (TANK) 4.0 01:00:39 10° WSW 01:13:47 88° NNW 01:17:32 10° ENE
Cosmos 2237 Rocket 3.2 01:11:28 15° WSW 01:15:46 38° NW 01:21:06 10° NNE
AQUA 3.8 01:13:31 10° NNE 01:18:19 84° WNW 01:21:49 18° SSW
SL-16 R/B 2.7 01:14:42 14° S 01:19:59 56° W 01:26:08 10° NNW
Helios 1A 2.9 01:16:52 10° SSE 01:21:01 87° WSW 01:25:17 10° NNW
SAR-Lupe-2 3.5 01:18:21 10° N 01:21:57 73° WNW 01:24:09 22° SSW
Lacrosse 5 rocket 1.5 01:21:54 22° SSW 01:24:10 55° SE 01:28:11 10° ENE
Resurs 1-4 Rocket 2.6 01:22:59 10° N 01:28:03 48° WNW 01:31:56 17° SW
Cosmos 2074 Rocket 4.2 01:22:24 10° NNW 01:28:31 54° W 01:33:59 13° SSW
Cosmos 1943 Rocket 2.6 01:28:28 10° NW 01:33:46 41° WSW 01:39:02 10° S
Cosmos 2297 3.9 01:28:14 10° NW 01:33:50 53° WSW 01:39:21 10° S
Cosmos 1703 3.3 01:35:52 14° S 01:39:15 85° E 01:43:12 10° N
Cosmos 2184 Rocket 4.5 01:37:27 10° NNW 01:43:18 43° W 01:48:45 12° SSW
ADEOS II 2.2 01:38:51 10° N 01:44:03 64° WNW 01:48:40 13° SSW
IDEFIX/ARIANE 42P 2.6 01:39:43 10° N 01:45:00 74° WNW 01:49:52 12° SSW
MOS 1-B Rocket 4.3 01:42:53 10° SSE 01:48:25 66° ENE 01:54:12 10° N
Cosmos 292 Rocket 3.8 01:48:10 13° SSW 01:52:24 77° WNW 01:57:13 10° NNE
Cosmos 2084 Rocket 4.3 01:49:15 10° WSW 01:52:42 35° NW 01:56:14 10° NNE
USA 306 3.8 01:48:43 10° W 01:52:44 45° NNW 01:56:46 10° ENE
USA 307 3.8 01:52:09 10° W 01:56:12 46° NNW 02:00:16 10° ENE
Meteor 1-21 Rocket 4.3 01:52:12 10° S 01:57:50 85° E 02:03:26 10° NNE
ERBS 3.9 01:55:48 10° W 01:58:26 26° NNW 02:01:07 10° NE
Cosmos 2369 Rocket 2.2 01:53:38 10° NNW 01:59:11 65° WSW 02:04:42 10° SSE
Gblst 52 Del rocket 4.3 01:55:01 10° WNW 02:00:45 77° NNE 02:06:15 10° ESE
IRS-1D 3.6 01:56:37 10° NNE 02:02:00 85° WNW 02:07:17 10° SSW
Cosmos 962 Rocket 4.5 01:56:06 10° NNW 02:02:14 74° W 02:08:19 10° S
EO 1 Del DPAF 3.8 01:58:59 10° N 02:02:16 38° WNW 02:05:16 12° SW
Cosmos 2228 3.3 01:58:05 10° NNW 02:02:19 51° W 02:06:31 10° S
SL-16 R/B 2.9 01:58:00 11° SW 02:03:10 45° NW 02:08:37 10° NNE
Cosmos 2251 Rocket 3.6 01:59:30 10° NNW 02:04:40 57° WSW 02:09:49 10° S
Meteor 1-28 Rocket 4.4 02:03:36 11° SSW 02:06:24 24° W 02:09:29 10° NW
Cosmos 2181 Rocket 4.4 02:00:36 10° S 02:06:45 67° E 02:12:52 10° NNE
USA 215 4.5 02:01:03 10° ENE 02:07:09 43° N 02:13:15 10° WNW
Cosmos 1656 Rocket 3.6 02:03:12 10° NNW 02:08:36 67° WSW 02:13:57 10° SSE
Cosmos 2058 Rocket 3.7 02:05:52 10° N 02:10:14 60° ENE 02:14:32 10° SSE
COSMOS 2455 3.0 02:04:48 11° SW 02:10:43 72° NW 02:16:46 10° NNE
Cosmos 1190 Rocket 4.4 02:06:56 10° NNW 02:12:14 71° ENE 02:17:32 10° SSE
Cosmos 1408 3.5 02:17:13 10° S 02:20:44 48° E 02:24:14 10° NNE
MSX 4.2 02:16:22 10° N 02:21:56 52° WNW 02:27:30 10° SW
Cosmos 1455 4.4 02:24:30 10° WNW 02:25:04 10° W 02:25:37 10° W
Cosmos 1603 3.8 02:20:52 10° SSW 02:26:29 81° ESE 02:32:12 10° NNE
USA 308 4.1 02:23:01 10° W 02:26:59 40° N 02:30:58 10° ENE
Cosmos 1271 Rocket 4.4 02:26:38 10° NW 02:29:11 17° W 02:31:45 10° SW
